When you browse on this site, cookies collect data to enhance your experience and personalize the content and advertising you see.
Visit our Privacy Policy to learn more. By continuing to use the site, you agree to this use of cookies and data.
  • In Hungary
  • List of Countries
  • For 7 days
  • Water Temperature
  • Weather Map
  • News
  • Weather Widgets
  • user-avatar
    Login

    Hourly Weather Zbijewek

    Today, 15 September, Sunday

    Time Temperature Precipitation Wind Pressure Humidity
    00:00 +11°C° 0 mm 1 mps 760 mmHg 73%
    01:00 +11°C° 0 mm 1 mps 759 mmHg 74%
    02:00 +9°C° 0 mm 2 mps 759 mmHg 73%
    03:00 +9°C° 0 mm 2 mps 758 mmHg 72%
    04:00 +9°C° 0 mm 3 mps 758 mmHg 72%
    05:00 +10°C° 0 mm 3 mps 757 mmHg 70%
    06:00 +11°C° 0 mm 4 mps 757 mmHg 68%
    07:00 +11°C° 0 mm 4 mps 756 mmHg 66%
    08:00 +13°C° 0 mm 5 mps 756 mmHg 61%
    09:00 +15°C° 0 mm 5 mps 755 mmHg 55%
    10:00 +17°C° 0 mm 6 mps 755 mmHg 49%
    11:00 +19°C° 0 mm 6 mps 754 mmHg 48%
    12:00 +20°C° 0 mm 7 mps 753 mmHg 47%
    13:00 +21°C° 0 mm 7 mps 753 mmHg 46%
    14:00 +21°C° 0 mm 7 mps 752 mmHg 47%
    15:00 +21°C° 0 mm 6 mps 752 mmHg 49%
    16:00 +22°C° 0 mm 6 mps 751 mmHg 50%
    17:00 +20°C° 0 mm 5 mps 751 mmHg 52%
    18:00 +19°C° 0 mm 5 mps 751 mmHg 54%
    19:00 +16°C° 0 mm 5 mps 751 mmHg 56%
    20:00 +16°C° 0 mm 5 mps 750 mmHg 54%
    21:00 +16°C° 0 mm 5 mps 750 mmHg 53%
    22:00 +15°C° 0 mm 5 mps 750 mmHg 51%
    23:00 +15°C° 0 mm 5 mps 750 mmHg 55%

    Tomorrow, 16 September, Monday

    Time Temperature Precipitation Wind Pressure Humidity
    00:00 +16°C° 0 mm 5 mps 750 mmHg 58%
    01:00 +16°C° 0 mm 5 mps 750 mmHg 61%
    02:00 +15°C° 0 mm 5 mps 750 mmHg 63%
    03:00 +15°C° 0 mm 5 mps 750 mmHg 65%
    04:00 +15°C° 0 mm 5 mps 750 mmHg 67%
    05:00 +14°C° 0 mm 5 mps 750 mmHg 66%
    06:00 +14°C° 0 mm 5 mps 750 mmHg 64%
    07:00 +13°C° 0 mm 6 mps 750 mmHg 62%
    08:00 +13°C° 0 mm 6 mps 750 mmHg 63%
    09:00 +14°C° 0 mm 6 mps 750 mmHg 63%
    10:00 +14°C° 0 mm 6 mps 750 mmHg 64%
    11:00 +14°C° 0 mm 6 mps 750 mmHg 62%
    12:00 +15°C° 0 mm 6 mps 750 mmHg 59%
    13:00 +16°C° 0 mm 6 mps 750 mmHg 57%
    14:00 +16°C° 0 mm 6 mps 749 mmHg 57%
    15:00 +15°C° 0 mm 6 mps 749 mmHg 58%
    16:00 +15°C° 0 mm 5 mps 749 mmHg 59%
    17:00 +14°C° 0 mm 5 mps 749 mmHg 66%
    18:00 +13°C° 0 mm 5 mps 748 mmHg 72%
    19:00 +10°C° 0 mm 5 mps 748 mmHg 79%
    20:00 +10°C° 0 mm 5 mps 748 mmHg 78%
    21:00 +10°C° 0 mm 5 mps 748 mmHg 77%
    22:00 +11°C° 0 mm 4 mps 748 mmHg 75%
    23:00 +10°C° 0 mm 4 mps 748 mmHg 75%

    Day after tomorrow, 17 September, Tuesday

    Time Temperature Precipitation Wind Pressure Humidity
    00:00 +10°C° 0 mm 4 mps 748 mmHg 74%
    01:00 +8°C° 0 mm 4 mps 748 mmHg 73%
    02:00 +8°C° 0 mm 5 mps 748 mmHg 73%
    03:00 +8°C° 0 mm 5 mps 748 mmHg 74%
    04:00 +8°C° 0 mm 5 mps 748 mmHg 75%
    05:00 +8°C° 0 mm 6 mps 748 mmHg 74%
    06:00 +9°C° 0 mm 6 mps 747 mmHg 74%
    07:00 +9°C° 0 mm 7 mps 747 mmHg 73%
    08:00 +10°C° 0 mm 7 mps 747 mmHg 68%
    09:00 +11°C° 0 mm 8 mps 747 mmHg 63%
    10:00 +12°C° 0 mm 8 mps 747 mmHg 58%
    11:00 +12°C° 0.3 mm 8 mps 747 mmHg 59%
    12:00 +12°C° 0.3 mm 9 mps 746 mmHg 60%
    13:00 +12°C° 0.3 mm 9 mps 746 mmHg 61%
    14:00 +12°C° 0.3 mm 9 mps 745 mmHg 60%
    15:00 +11°C° 0.3 mm 9 mps 745 mmHg 59%
    16:00 +11°C° 0.3 mm 9 mps 745 mmHg 59%
    17:00 +10°C° 0.1 mm 8 mps 745 mmHg 62%
    18:00 +9°C° 0.1 mm 7 mps 745 mmHg 65%
    19:00 +8°C° 0.1 mm 7 mps 745 mmHg 68%
    20:00 +8°C° 0 mm 7 mps 745 mmHg 69%
    21:00 +8°C° 0 mm 7 mps 746 mmHg 70%
    22:00 +6°C° 0 mm 7 mps 746 mmHg 71%
    23:00 +6°C° 0 mm 7 mps 746 mmHg 72%

    18 September, Wednesday

    Time Temperature Precipitation Wind Pressure Humidity
    00:00 +6°C° 0 mm 7 mps 746 mmHg 73%
    01:00 +6°C° 0 mm 7 mps 746 mmHg 74%
    02:00 +5°C° 0 mm 7 mps 747 mmHg 75%
    03:00 +5°C° 0 mm 7 mps 747 mmHg 77%
    04:00 +5°C° 0 mm 7 mps 748 mmHg 78%
    05:00 +6°C° 0 mm 7 mps 748 mmHg 77%
    06:00 +6°C° 0 mm 7 mps 749 mmHg 76%
    07:00 +6°C° 0 mm 7 mps 749 mmHg 75%
    08:00 +9°C° 0 mm 7 mps 750 mmHg 68%
    09:00 +10°C° 0 mm 8 mps 750 mmHg 62%
    10:00 +12°C° 0 mm 8 mps 751 mmHg 55%
    11:00 +12°C° 0 mm 8 mps 751 mmHg 52%
    12:00 +13°C° 0 mm 8 mps 751 mmHg 49%
    13:00 +14°C° 0 mm 7 mps 750 mmHg 46%
    14:00 +14°C° 0.2 mm 7 mps 751 mmHg 50%
    15:00 +14°C° 0.2 mm 7 mps 751 mmHg 53%
    16:00 +12°C° 0.2 mm 7 mps 751 mmHg 56%
    17:00 +11°C° 0.1 mm 6 mps 751 mmHg 61%
    18:00 +10°C° 0.1 mm 5 mps 751 mmHg 67%
    19:00 +10°C° 0.1 mm 3 mps 752 mmHg 72%
    20:00 +9°C° 0 mm 3 mps 752 mmHg 75%
    21:00 +8°C° 0 mm 3 mps 752 mmHg 78%
    22:00 +8°C° 0 mm 3 mps 752 mmHg 80%
    23:00 +8°C° 0.1 mm 3 mps 752 mmHg 82%

    19 September, Thursday

    Time Temperature Precipitation Wind Pressure Humidity
    00:00 +7°C° 0.1 mm 2 mps 752 mmHg 83%
    01:00 +7°C° 0.1 mm 2 mps 752 mmHg 84%
    02:00 +7°C° 0 mm 3 mps 752 mmHg 87%
    03:00 +5°C° 0 mm 3 mps 752 mmHg 90%
    04:00 +5°C° 0 mm 3 mps 752 mmHg 92%
    05:00 +5°C° 0 mm 3 mps 752 mmHg 89%
    06:00 +6°C° 0 mm 4 mps 752 mmHg 85%
    07:00 +6°C° 0 mm 4 mps 753 mmHg 82%
    08:00 +8°C° 0 mm 4 mps 753 mmHg 74%
    09:00 +10°C° 0 mm 5 mps 753 mmHg 66%
    10:00 +12°C° 0 mm 5 mps 754 mmHg 58%
    11:00 +13°C° 0.2 mm 5 mps 754 mmHg 55%
    12:00 +14°C° 0.2 mm 5 mps 754 mmHg 52%
    13:00 +14°C° 0.2 mm 5 mps 754 mmHg 48%
    14:00 +14°C° 0.3 mm 5 mps 754 mmHg 50%
    15:00 +13°C° 0.3 mm 4 mps 754 mmHg 51%
    16:00 +13°C° 0.3 mm 4 mps 754 mmHg 53%
    17:00 +12°C° 0.2 mm 4 mps 755 mmHg 58%
    18:00 +10°C° 0.2 mm 4 mps 755 mmHg 63%
    19:00 +9°C° 0.2 mm 3 mps 755 mmHg 68%
    20:00 +8°C° 0 mm 3 mps 756 mmHg 69%
    21:00 +7°C° 0 mm 3 mps 756 mmHg 70%
    22:00 +5°C° 0 mm 3 mps 757 mmHg 71%
    23:00 +5°C° 0 mm 4 mps 757 mmHg 72%

    20 September, Friday

    Time Temperature Precipitation Wind Pressure Humidity
    00:00 +5°C° 0 mm 4 mps 757 mmHg 72%
    01:00 +4°C° 0 mm 4 mps 757 mmHg 73%
    02:00 +4°C° 0 mm 4 mps 758 mmHg 75%
    03:00 +4°C° 0 mm 4 mps 758 mmHg 78%
    04:00 +4°C° 0 mm 4 mps 758 mmHg 80%
    05:00 +4°C° 0 mm 4 mps 758 mmHg 78%
    06:00 +5°C° 0 mm 5 mps 759 mmHg 76%
    07:00 +5°C° 0 mm 5 mps 759 mmHg 74%
    08:00 +7°C° 0 mm 5 mps 759 mmHg 66%
    09:00 +9°C° 0 mm 5 mps 760 mmHg 59%
    10:00 +12°C° 0 mm 5 mps 760 mmHg 51%
    11:00 +12°C° 0 mm 5 mps 760 mmHg 49%
    12:00 +13°C° 0 mm 5 mps 759 mmHg 46%
    13:00 +13°C° 0 mm 5 mps 759 mmHg 44%
    14:00 +13°C° 0 mm 5 mps 759 mmHg 44%
    15:00 +13°C° 0 mm 4 mps 759 mmHg 43%
    16:00 +13°C° 0 mm 4 mps 759 mmHg 43%
    17:00 +11°C° 0 mm 4 mps 759 mmHg 48%
    18:00 +10°C° 0 mm 3 mps 759 mmHg 53%
    19:00 +8°C° 0 mm 3 mps 759 mmHg 58%
    20:00 +8°C° 0 mm 3 mps 758 mmHg 60%
    21:00 +8°C° 0 mm 3 mps 758 mmHg 61%
    22:00 +7°C° 0 mm 3 mps 758 mmHg 63%
    23:00 +7°C° 0 mm 4 mps 758 mmHg 61%
    Show more